Location: Marengo
(51.4813°N, 109.7825°W)
Time: 21:16:42
(UTC+00:00)

Envisat - Pass Details

Date: 30 January 2022
Orbit: 764 x 765 km, 98.2° (Epoch: 21 May)

Event Time Altitude Azimuth Distance (km) Brightness Sun altitude
Rises 11:47:27 0° 18° (NNE) 3,244 6.6 -29.9°
Reaches altitude 10° 11:49:53 10° 25° (NNE) 2,313 5.8 -29.6°
Maximum altitude 11:54:45 44° 98° (E) 1,054 4.0 -28.8°
Drops below altitude 10° 11:59:35 10° 170° (S) 2,298 5.5 -28.1°
Sets 12:01:58 0° 177° (S) 3,220 6.2 -27.7°
